QPF
0.00 0.00 0.00 0.00 0.00 0.00 0.00 0.00 0.00 0.00 0.00 0.00 0.00 0.00 0.00 0.00 0.00 0.00 0.00 0.00 0.00 0.00 0.00 0.01 0.05 0.10 0.15 0.19 0.23 0.26 0.28 0.28 0.23 0.18 0.16 0.13 0.08 0.04 0.03 0.03 0.02 0.03 0.03
0.00 0.00 0.00 0.00 0.00 0.00 0.00 0.00 0.00 0.00 0.00 0.00 0.00 0.00 0.00 0.00 0.00 0.00 0.00 0.00 0.00 0.00 0.00 0.00 0.03 0.08 0.16 0.22 0.24 0.26 0.27 0.30 0.30 0.24 0.19 0.16 0.12 0.07 0.04 0.03 0.03 0.03 0.02
0.00 0.00 0.00 0.00 0.00 0.00 0.00 0.00 0.00 0.00 0.00 0.00 0.00 0.00 0.00 0.00 0.00 0.00 0.00 0.00 0.00 0.00 0.00 0.01 0.01 0.05 0.13 0.22 0.26 0.29 0.30 0.30 0.32 0.31 0.26 0.18 0.14 0.11 0.06 0.05 0.04 0.03 0.03
0.00 0.00 0.00 0.00 0.00 0.00 0.00 0.00 0.00 0.00 0.00 0.00 0.00 0.00 0.00 0.00 0.00 0.00 0.00 0.00 0.00 0.00 0.01 0.01 0.01 0.03 0.08 0.17 0.24 0.30 0.35 0.36 0.36 0.36 0.35 0.27 0.17 0.12 0.09 0.07 0.05 0.04 0.05
0.00 0.00 0.00 0.00 0.00 0.00 0.00 0.00 0.00 0.00 0.00 0.00 0.00 0.00 0.00 0.00 0.00 0.00 0.00 0.00 0.00 0.00 0.01 0.01 0.02 0.02 0.04 0.09 0.17 0.25 0.33 0.39 0.41 0.42 0.41 0.35 0.26 0.16 0.11 0.09 0.07 0.06 0.06
0.00 0.00 0.00 0.00 0.00 0.00 0.00 0.00 0.00 0.00 0.00 0.00 0.00 0.00 0.00 0.00 0.00 0.00 0.00 0.00 0.00 0.00 0.01 0.02 0.03 0.04 0.04 0.05 0.08 0.16 0.26 0.36 0.43 0.46 0.48 0.45 0.36 0.26 0.16 0.11 0.08 0.07 0.07
0.00 0.00 0.00 0.00 0.00 0.00 0.00 0.00 0.00 0.00 0.00 0.00 0.00 0.00 0.00 0.00 0.00 0.00 0.00 0.00 0.00 0.00 0.01 0.02 0.03 0.04 0.06 0.07 0.06 0.07 0.14 0.26 0.37 0.46 0.50 0.52 0.48 0.39 0.28 0.16 0.10 0.09 0.07
0.00 0.00 0.00 0.00 0.00 0.00 0.00 0.00 0.00 0.00 0.00 0.00 0.01 0.01 0.01 0.00 0.00 0.00 0.00 0.00 0.00 0.00 0.01 0.02 0.03 0.04 0.06 0.09 0.10 0.08 0.07 0.13 0.25 0.39 0.51 0.54 0.59 0.56 0.43 0.29 0.16 0.10 0.08
0.00 0.00 0.00 0.00 0.00 0.00 0.00 0.00 0.00 0.00 0.00 0.00 0.01 0.04 0.06 0.04 0.01 0.00 0.00 0.00 0.00 0.00 0.00 0.01 0.02 0.03 0.05 0.08 0.11 0.11 0.08 0.07 0.12 0.24 0.42 0.56 0.62 0.68 0.63 0.45 0.27 0.16 0.10
0.00 0.00 0.00 0.00 0.00 0.00 0.00 0.00 0.00 0.00 0.00 0.00 0.00 0.02 0.04 0.06 0.06 0.03 0.00 0.00 0.00 0.00 0.00 0.00 0.01 0.03 0.04 0.08 0.13 0.17 0.12 0.07 0.06 0.11 0.23 0.43 0.62 0.72 0.75 0.66 0.45 0.26 0.15
0.00 0.00 0.00 0.00 0.00 0.00 0.00 0.00 0.00 0.00 0.00 0.00 0.01 0.02 0.02 0.02 0.03 0.05 0.02 0.00 0.00 0.00 0.00 0.00 0.00 0.02 0.04 0.07 0.11 0.17 0.17 0.11 0.07 0.06 0.11 0.24 0.46 0.70 0.83 0.78 0.64 0.45 0.24
0.00 0.00 0.00 0.00 0.00 0.00 0.00 0.00 0.00 0.00 0.00 0.00 0.01 0.02 0.03 0.03 0.03 0.04 0.03 0.01 0.00 0.00 0.00 0.00 0.00 0.01 0.04 0.07 0.10 0.16 0.16 0.13 0.09 0.06 0.06 0.11 0.25 0.48 0.75 0.87 0.74 0.58 0.43
0.00 0.00 0.00 0.00 0.00 0.00 0.00 0.00 0.00 0.00 0.00 0.00 0.00 0.01 0.02 0.03 0.03 0.05 0.05 0.02 0.01 0.00 0.00 0.00 0.00 0.01 0.03 0.06 0.09 0.12 0.13 0.13 0.11 0.08 0.05 0.04 0.09 0.24 0.51 0.81 0.92 0.74 0.57
0.00 0.00 0.00 0.00 0.00 0.00 0.00 0.00 0.00 0.00 0.00 0.00 0.00 0.01 0.01 0.02 0.03 0.05 0.05 0.04 0.03 0.01 0.00 0.00 0.00 0.01 0.02 0.04 0.07 0.10 0.11 0.12 0.10 0.09 0.07 0.04 0.03 0.07 0.21 0.51 0.81 0.89 0.74
0.00 0.00 0.00 0.00 0.00 0.00 0.00 0.00 0.00 0.00 0.00 0.00 0.00 0.01 0.01 0.02 0.02 0.02 0.03 0.04 0.07 0.05 0.01 0.00 0.01 0.01 0.01 0.02 0.05 0.07 0.08 0.11 0.11 0.09 0.07 0.05 0.03 0.03 0.05 0.17 0.48 0.73 0.79
0.00 0.00 0.00 0.00 0.00 0.00 0.00 0.00 0.00 0.00 0.00 0.00 0.01 0.01 0.01 0.01 0.01 0.01 0.02 0.02 0.04 0.06 0.04 0.01 0.01 0.01 0.01 0.02 0.04 0.05 0.07 0.10 0.12 0.10 0.07 0.05 0.03 0.02 0.03 0.05 0.17 0.48 0.66
0.00 0.00 0.00 0.00 0.00 0.00 0.01 0.01 0.01 0.01 0.01 0.01 0.01 0.01 0.01 0.01 0.01 0.01 0.02 0.02 0.03 0.04 0.05 0.02 0.01 0.01 0.01 0.02 0.04 0.05 0.06 0.08 0.10 0.11 0.10 0.06 0.04 0.03 0.03 0.03 0.06 0.20 0.46
0.00 0.00 0.00 0.00 0.01 0.01 0.02 0.02 0.02 0.02 0.02 0.02 0.02 0.02 0.01 0.01 0.01 0.01 0.02 0.02 0.02 0.03 0.04 0.03 0.01 0.01 0.01 0.02 0.04 0.06 0.07 0.08 0.10 0.11 0.10 0.08 0.05 0.04 0.03 0.02 0.04 0.08 0.20
0.00 0.00 0.00 0.01 0.02 0.03 0.05 0.04 0.04 0.03 0.03 0.03 0.03 0.03 0.02 0.02 0.02 0.02 0.03 0.03 0.03 0.03 0.03 0.03 0.01 0.01 0.01 0.02 0.03 0.06 0.08 0.09 0.11 0.12 0.10 0.09 0.07 0.05 0.03 0.03 0.02 0.04 0.07
0.00 0.00 0.00 0.01 0.03 0.06 0.10 0.10 0.06 0.05 0.04 0.04 0.04 0.04 0.04 0.03 0.03 0.04 0.05 0.05 0.04 0.03 0.03 0.02 0.02 0.01 0.02 0.02 0.03 0.06 0.08 0.10 0.12 0.14 0.13 0.10 0.09 0.06 0.04 0.02 0.02 0.02 0.04
0.00 0.00 0.00 0.00 0.03 0.11 0.20 0.22 0.11 0.07 0.06 0.05 0.04 0.04 0.04 0.04 0.05 0.08 0.10 0.09 0.06 0.04 0.03 0.03 0.02 0.02 0.02 0.02 0.03 0.05 0.08 0.10 0.12 0.16 0.17 0.13 0.08 0.05 0.03 0.02 0.01 0.01 0.02
0.00 0.00 0.00 0.00 0.02 0.11 0.20 0.20 0.09 0.06 0.05 0.06 0.05 0.05 0.05 0.04 0.04 0.03 0.05 0.08 0.06 0.07 0.07 0.05 0.04 0.03 0.03 0.02 0.03 0.03 0.07 0.10 0.11 0.14 0.16 0.14 0.10 0.06 0.03 0.01 0.01 0.01 0.01
0.00 0.00 0.00 0.00 0.01 0.06 0.16 0.14 0.06 0.04 0.05 0.07 0.07 0.06 0.05 0.05 0.04 0.01 0.02 0.02 0.03 0.05 0.06 0.06 0.06 0.05 0.04 0.03 0.03 0.02 0.04 0.07 0.10 0.13 0.16 0.15 0.12 0.08 0.04 0.02 0.01 0.01 0.01
0.00 0.00 0.00 0.00 0.00 0.03 0.12 0.11 0.03 0.02 0.03 0.05 0.06 0.06 0.04 0.05 0.06 0.02 0.01 0.02 0.02 0.03 0.04 0.06 0.07 0.06 0.05 0.04 0.03 0.03 0.03 0.05 0.07 0.11 0.16 0.16 0.13 0.09 0.05 0.02 0.01 0.01 0.01
0.00 0.00 0.00 0.00 0.00 0.01 0.07 0.10 0.02 0.01 0.02 0.03 0.04 0.05 0.03 0.02 0.04 0.02 0.01 0.01 0.02 0.02 0.02 0.04 0.04 0.03 0.03 0.03 0.02 0.02 0.02 0.04 0.05 0.09 0.14 0.16 0.15 0.09 0.06 0.03 0.01 0.01 0.01
0.00 0.00 0.00 0.00 0.00 0.00 0.03 0.07 0.03 0.00 0.01 0.02 0.03 0.05 0.05 0.03 0.03 0.02 0.01 0.01 0.02 0.02 0.01 0.01 0.01 0.01 0.01 0.01 0.02 0.03 0.03 0.04 0.05 0.08 0.12 0.13 0.15 0.10 0.06 0.04 0.02 0.02 0.02
MSLP
1030.22 1029.56 1028.81 1028.01 1027.19 1026.38 1025.61 1024.86 1024.14 1023.41 1022.64 1021.83 1020.97 1020.08 1019.19 1018.32 1017.50 1016.73 1016.01 1015.30 1014.57 1013.82 1013.02 1012.22 1011.44 1010.75 1010.21 1009.88 1009.76 1009.86 1010.15 1010.58 1011.09 1011.61 1012.14 1012.64 1013.12 1013.61 1014.11 1014.65 1015.23 1015.84 1016.45
1030.39 1029.71 1028.96 1028.17 1027.37 1026.61 1025.87 1025.16 1024.44 1023.68 1022.85 1021.94 1020.97 1019.97 1018.98 1018.03 1017.16 1016.38 1015.67 1014.99 1014.31 1013.60 1012.83 1012.02 1011.22 1010.48 1009.86 1009.43 1009.21 1009.23 1009.44 1009.82 1010.30 1010.84 1011.38 1011.92 1012.45 1012.97 1013.51 1014.08 1014.67 1015.29 1015.91
1030.48 1029.80 1029.05 1028.29 1027.54 1026.83 1026.14 1025.46 1024.75 1023.96 1023.06 1022.06 1020.97 1019.85 1018.73 1017.69 1016.75 1015.94 1015.23 1014.58 1013.94 1013.27 1012.55 1011.77 1010.97 1010.21 1009.54 1009.04 1008.74 1008.66 1008.80 1009.10 1009.54 1010.05 1010.60 1011.16 1011.71 1012.27 1012.84 1013.44 1014.05 1014.68 1015.31
1030.52 1029.84 1029.11 1028.39 1027.69 1027.04 1026.41 1025.77 1025.06 1024.24 1023.28 1022.18 1020.99 1019.74 1018.52 1017.37 1016.36 1015.50 1014.77 1014.13 1013.52 1012.90 1012.22 1011.49 1010.72 1009.96 1009.27 1008.72 1008.35 1008.19 1008.23 1008.46 1008.83 1009.29 1009.81 1010.36 1010.93 1011.52 1012.12 1012.74 1013.38 1014.03 1014.67
1030.52 1029.84 1029.14 1028.46 1027.83 1027.24 1026.66 1026.04 1025.34 1024.50 1023.49 1022.33 1021.04 1019.70 1018.38 1017.16 1016.07 1015.16 1014.39 1013.74 1013.15 1012.55 1011.92 1011.23 1010.49 1009.75 1009.06 1008.48 1008.06 1007.82 1007.77 1007.90 1008.18 1008.57 1009.04 1009.57 1010.13 1010.73 1011.35 1012.00 1012.67 1013.34 1014.01
1030.48 1029.80 1029.13 1028.51 1027.93 1027.39 1026.86 1026.27 1025.57 1024.72 1023.69 1022.49 1021.16 1019.77 1018.40 1017.11 1015.97 1015.01 1014.21 1013.53 1012.92 1012.33 1011.72 1011.05 1010.35 1009.63 1008.95 1008.35 1007.87 1007.56 1007.42 1007.44 1007.62 1007.92 1008.32 1008.79 1009.34 1009.93 1010.57 1011.25 1011.95 1012.65 1013.34
1030.39 1029.72 1029.08 1028.50 1027.97 1027.48 1026.98 1026.42 1025.74 1024.90 1023.87 1022.68 1021.36 1019.97 1018.60 1017.30 1016.14 1015.13 1014.29 1013.56 1012.92 1012.30 1011.67 1011.01 1010.32 1009.61 1008.93 1008.31 1007.80 1007.42 1007.18 1007.10 1007.17 1007.36 1007.67 1008.09 1008.59 1009.17 1009.82 1010.52 1011.25 1011.99 1012.71
1030.25 1029.59 1028.97 1028.42 1027.93 1027.47 1027.00 1026.47 1025.82 1025.01 1024.03 1022.89 1021.64 1020.31 1018.99 1017.73 1016.57 1015.55 1014.66 1013.87 1013.16 1012.48 1011.81 1011.12 1010.41 1009.70 1009.01 1008.38 1007.83 1007.39 1007.07 1006.89 1006.84 1006.93 1007.15 1007.48 1007.94 1008.49 1009.13 1009.85 1010.60 1011.37 1012.12
1030.07 1029.41 1028.81 1028.28 1027.81 1027.37 1026.92 1026.41 1025.80 1025.05 1024.15 1023.11 1021.96 1020.75 1019.53 1018.35 1017.23 1016.21 1015.27 1014.41 1013.61 1012.85 1012.09 1011.34 1010.60 1009.87 1009.16 1008.51 1007.93 1007.45 1007.06 1006.79 1006.64 1006.63 1006.75 1007.00 1007.39 1007.91 1008.53 1009.24 1010.00 1010.79 1011.57
1029.86 1029.20 1028.60 1028.08 1027.61 1027.17 1026.73 1026.23 1025.65 1024.97 1024.17 1023.26 1022.26 1021.21 1020.13 1019.05 1018.00 1016.98 1016.01 1015.08 1014.18 1013.31 1012.45 1011.63 1010.83 1010.06 1009.35 1008.68 1008.08 1007.56 1007.12 1006.78 1006.54 1006.44 1006.46 1006.64 1006.96 1007.42 1008.00 1008.69 1009.45 1010.24 1011.04
1029.65 1028.97 1028.37 1027.83 1027.34 1026.88 1026.41 1025.92 1025.37 1024.74 1024.05 1023.28 1022.45 1021.56 1020.64 1019.68 1018.71 1017.72 1016.72 1015.72 1014.72 1013.74 1012.80 1011.89 1011.03 1010.24 1009.50 1008.84 1008.23 1007.69 1007.21 1006.81 1006.51 1006.33 1006.27 1006.36 1006.61 1007.00 1007.53 1008.18 1008.91 1009.69 1010.48
1029.45 1028.75 1028.11 1027.53 1026.99 1026.48 1025.97 1025.44 1024.90 1024.33 1023.72 1023.09 1022.41 1021.69 1020.93 1020.10 1019.21 1018.26 1017.25 1016.19 1015.12 1014.05 1013.02 1012.05 1011.15 1010.33 1009.60 1008.93 1008.33 1007.78 1007.29 1006.86 1006.50 1006.25 1006.12 1006.13 1006.30 1006.62 1007.09 1007.67 1008.36 1009.10 1009.87
1029.28 1028.54 1027.84 1027.19 1026.57 1025.97 1025.38 1024.80 1024.24 1023.69 1023.15 1022.62 1022.08 1021.51 1020.89 1020.19 1019.39 1018.48 1017.48 1016.40 1015.28 1014.16 1013.08 1012.07 1011.14 1010.32 1009.60 1008.95 1008.36 1007.81 1007.32 1006.86 1006.47 1006.17 1005.97 1005.91 1006.00 1006.25 1006.64 1007.15 1007.77 1008.46 1009.20
1029.13 1028.33 1027.56 1026.81 1026.08 1025.36 1024.66 1024.00 1023.38 1022.82 1022.32 1021.87 1021.43 1020.99 1020.49 1019.90 1019.19 1018.34 1017.37 1016.30 1015.18 1014.05 1012.95 1011.93 1011.02 1010.21 1009.51 1008.88 1008.31 1007.78 1007.28 1006.81 1006.39 1006.04 1005.79 1005.67 1005.69 1005.86 1006.17 1006.61 1007.16 1007.79 1008.49
1029.00 1028.13 1027.26 1026.40 1025.53 1024.67 1023.84 1023.07 1022.38 1021.78 1021.29 1020.87 1020.52 1020.16 1019.77 1019.28 1018.65 1017.88 1016.97 1015.94 1014.85 1013.75 1012.68 1011.69 1010.81 1010.04 1009.36 1008.76 1008.21 1007.68 1007.18 1006.69 1006.25 1005.87 1005.58 1005.41 1005.37 1005.47 1005.71 1006.08 1006.56 1007.13 1007.77
1028.87 1027.93 1026.96 1025.96 1024.95 1023.95 1022.99 1022.09 1021.31 1020.66 1020.15 1019.76 1019.44 1019.16 1018.84 1018.43 1017.90 1017.21 1016.37 1015.41 1014.39 1013.35 1012.35 1011.42 1010.59 1009.86 1009.22 1008.63 1008.09 1007.56 1007.05 1006.55 1006.08 1005.67 1005.35 1005.14 1005.06 1005.11 1005.29 1005.60 1006.01 1006.52 1007.11
1028.75 1027.74 1026.68 1025.56 1024.42 1023.28 1022.19 1021.19 1020.32 1019.61 1019.07 1018.68 1018.39 1018.14 1017.88 1017.54 1017.08 1016.47 1015.72 1014.85 1013.92 1012.97 1012.04 1011.19 1010.42 1009.73 1009.12 1008.55 1008.01 1007.47 1006.94 1006.42 1005.93 1005.50 1005.16 1004.93 1004.82 1004.83 1004.97 1005.22 1005.57 1006.02 1006.57
1028.66 1027.60 1026.45 1025.25 1024.00 1022.76 1021.57 1020.48 1019.55 1018.79 1018.22 1017.81 1017.53 1017.30 1017.07 1016.78 1016.37 1015.83 1015.16 1014.38 1013.54 1012.68 1011.85 1011.07 1010.36 1009.72 1009.13 1008.57 1008.02 1007.46 1006.91 1006.37 1005.86 1005.42 1005.07 1004.82 1004.69 1004.68 1004.78 1004.99 1005.30 1005.69 1006.17
1028.61 1027.53 1026.34 1025.08 1023.77 1022.47 1021.22 1020.08 1019.10 1018.31 1017.72 1017.30 1017.00 1016.78 1016.56 1016.28 1015.91 1015.41 1014.80 1014.09 1013.33 1012.56 1011.80 1011.09 1010.44 1009.84 1009.26 1008.71 1008.15 1007.58 1007.01 1006.45 1005.93 1005.48 1005.12 1004.87 1004.73 1004.70 1004.77 1004.94 1005.19 1005.52 1005.94
1028.64 1027.56 1026.38 1025.11 1023.79 1022.47 1021.21 1020.06 1019.07 1018.27 1017.66 1017.21 1016.90 1016.65 1016.41 1016.12 1015.75 1015.27 1014.68 1014.02 1013.32 1012.61 1011.92 1011.27 1010.66 1010.09 1009.54 1008.99 1008.42 1007.85 1007.27 1006.70 1006.18 1005.72 1005.35 1005.09 1004.94 1004.89 1004.93 1005.05 1005.25 1005.51 1005.85
1028.76 1027.72 1026.57 1025.34 1024.06 1022.77 1021.54 1020.41 1019.44 1018.64 1018.02 1017.55 1017.20 1016.91 1016.63 1016.30 1015.89 1015.40 1014.81 1014.17 1013.49 1012.82 1012.17 1011.56 1011.00 1010.46 1009.93 1009.39 1008.84 1008.27 1007.69 1007.13 1006.60 1006.14 1005.77 1005.49 1005.32 1005.23 1005.23 1005.29 1005.42 1005.60 1005.85
1028.95 1027.98 1026.90 1025.74 1024.53 1023.31 1022.14 1021.07 1020.13 1019.35 1018.72 1018.24 1017.84 1017.50 1017.15 1016.76 1016.29 1015.75 1015.14 1014.48 1013.81 1013.15 1012.53 1011.95 1011.42 1010.91 1010.41 1009.90 1009.37 1008.82 1008.25 1007.70 1007.17 1006.71 1006.32 1006.02 1005.81 1005.68 1005.62 1005.61 1005.66 1005.76 1005.92
1029.17 1028.29 1027.30 1026.24 1025.12 1023.99 1022.90 1021.89 1021.00 1020.25 1019.63 1019.12 1018.69 1018.28 1017.86 1017.39 1016.86 1016.26 1015.60 1014.91 1014.23 1013.57 1012.96 1012.40 1011.90 1011.42 1010.95 1010.48 1009.98 1009.45 1008.91 1008.36 1007.84 1007.37 1006.95 1006.62 1006.36 1006.17 1006.04 1005.96 1005.93 1005.95 1006.03
1029.38 1028.57 1027.68 1026.71 1025.69 1024.66 1023.66 1022.72 1021.89 1021.17 1020.56 1020.04 1019.57 1019.12 1018.64 1018.10 1017.50 1016.84 1016.14 1015.42 1014.71 1014.05 1013.44 1012.90 1012.41 1011.96 1011.53 1011.08 1010.61 1010.11 1009.58 1009.05 1008.52 1008.02 1007.58 1007.20 1006.88 1006.63 1006.43 1006.29 1006.20 1006.16 1006.19
1029.48 1028.75 1027.93 1027.05 1026.12 1025.17 1024.26 1023.40 1022.63 1021.95 1021.37 1020.85 1020.37 1019.89 1019.37 1018.80 1018.16 1017.47 1016.73 1015.99 1015.26 1014.59 1013.98 1013.44 1012.96 1012.52 1012.10 1011.67 1011.22 1010.73 1010.21 1009.67 1009.13 1008.61 1008.13 1007.70 1007.33 1007.02 1006.77 1006.59 1006.46 1006.40 1006.41
1029.44 1028.76 1028.00 1027.17 1026.31 1025.44 1024.60 1023.81 1023.10 1022.47 1021.93 1021.44 1020.98 1020.51 1020.00 1019.43 1018.79 1018.09 1017.36 1016.61 1015.88 1015.20 1014.58 1014.04 1013.55 1013.10 1012.68 1012.24 1011.78 1011.28 1010.75 1010.19 1009.62 1009.07 1008.55 1008.08 1007.67 1007.33 1007.06 1006.86 1006.74 1006.70 1006.74
Thickness
5386 5381 5378 5375 5374 5375 5378 5384 5391 5400 5411 5424 5437 5453 5469 5485 5501 5517 5535 5551 5566 5581 5596 5611 5625 5638 5651 5662 5671 5678 5684 5688 5691 5694 5697 5699 5700 5701 5702 5702 5703 5703 5703
5356 5352 5349 5347 5345 5345 5348 5352 5359 5368 5378 5390 5405 5420 5438 5456 5475 5492 5510 5529 5546 5563 5579 5594 5610 5624 5638 5651 5662 5670 5677 5683 5686 5690 5693 5695 5697 5698 5699 5699 5700 5701 5701
5331 5326 5323 5320 5319 5319 5321 5325 5332 5339 5349 5361 5374 5389 5407 5427 5446 5465 5485 5505 5524 5542 5560 5577 5594 5610 5625 5638 5651 5661 5670 5676 5681 5685 5688 5690 5693 5694 5695 5696 5698 5698 5699
5309 5304 5300 5297 5296 5295 5297 5301 5307 5313 5322 5333 5348 5363 5380 5398 5418 5437 5458 5480 5501 5521 5540 5558 5576 5593 5610 5625 5639 5651 5661 5669 5675 5680 5684 5686 5688 5690 5691 5693 5695 5696 5696
5290 5284 5280 5277 5275 5274 5275 5278 5283 5288 5298 5309 5324 5341 5356 5373 5392 5411 5432 5454 5475 5497 5518 5538 5557 5576 5593 5610 5625 5639 5651 5660 5668 5674 5679 5682 5684 5685 5687 5689 5691 5692 5693
5273 5268 5264 5260 5258 5257 5258 5259 5262 5268 5274 5285 5301 5319 5335 5352 5369 5387 5406 5426 5448 5470 5493 5514 5535 5555 5574 5592 5609 5625 5639 5650 5659 5667 5672 5677 5679 5681 5682 5685 5687 5689 5690
5259 5254 5250 5247 5244 5243 5243 5244 5247 5252 5256 5264 5279 5298 5320 5335 5351 5365 5381 5399 5420 5443 5466 5489 5511 5533 5554 5574 5591 5608 5624 5638 5650 5659 5665 5670 5673 5676 5678 5680 5683 5685 5686
5246 5242 5238 5235 5233 5231 5231 5231 5233 5237 5241 5243 5252 5270 5295 5315 5328 5342 5357 5376 5394 5415 5438 5463 5486 5509 5531 5553 5572 5590 5607 5623 5637 5649 5658 5663 5667 5671 5674 5676 5678 5681 5682
5234 5229 5226 5223 5220 5219 5219 5219 5220 5222 5226 5230 5233 5242 5262 5282 5296 5320 5336 5352 5369 5388 5412 5437 5463 5487 5510 5532 5553 5572 5590 5607 5624 5637 5648 5656 5662 5666 5668 5671 5674 5676 5678
5223 5218 5213 5210 5207 5205 5205 5205 5208 5209 5212 5217 5221 5227 5235 5249 5268 5295 5315 5330 5346 5365 5387 5412 5438 5465 5488 5511 5533 5553 5572 5591 5608 5624 5637 5648 5656 5660 5664 5666 5669 5670 5672
5213 5206 5201 5196 5192 5190 5189 5190 5192 5194 5198 5203 5208 5215 5223 5234 5248 5266 5291 5311 5327 5346 5366 5390 5415 5442 5467 5491 5514 5534 5554 5574 5592 5609 5624 5636 5647 5654 5659 5661 5663 5664 5666
5204 5196 5188 5181 5176 5173 5171 5172 5175 5178 5183 5189 5196 5203 5211 5221 5235 5250 5269 5289 5308 5329 5348 5371 5396 5421 5446 5470 5494 5516 5536 5556 5575 5593 5609 5624 5636 5645 5652 5655 5658 5660 5661
5193 5184 5174 5166 5159 5154 5152 5152 5156 5161 5167 5174 5182 5191 5200 5209 5220 5235 5253 5273 5291 5312 5333 5355 5377 5400 5426 5450 5475 5498 5520 5539 5559 5577 5594 5610 5624 5635 5643 5648 5652 5655 5657
5179 5170 5159 5149 5141 5135 5132 5132 5136 5142 5151 5160 5170 5179 5189 5200 5211 5224 5240 5257 5277 5298 5317 5337 5361 5384 5407 5431 5457 5481 5503 5523 5543 5562 5579 5597 5612 5624 5634 5641 5646 5649 5652
5168 5157 5145 5135 5127 5121 5117 5115 5118 5125 5134 5145 5157 5168 5179 5191 5203 5214 5228 5243 5261 5282 5304 5324 5345 5368 5389 5413 5439 5464 5486 5508 5528 5548 5566 5584 5600 5613 5625 5632 5639 5644 5647
5159 5147 5136 5126 5118 5112 5108 5106 5107 5113 5121 5133 5145 5158 5171 5183 5195 5207 5219 5234 5250 5267 5289 5311 5329 5351 5373 5397 5423 5447 5470 5494 5515 5534 5552 5571 5587 5601 5613 5623 5632 5636 5642
5154 5141 5130 5120 5114 5110 5106 5104 5104 5107 5115 5126 5137 5151 5164 5177 5188 5201 5212 5226 5242 5258 5278 5299 5319 5340 5361 5383 5408 5432 5457 5480 5501 5520 5540 5559 5575 5589 5602 5613 5622 5629 5634
5149 5137 5126 5118 5114 5111 5109 5107 5107 5109 5113 5122 5134 5146 5159 5172 5183 5195 5207 5220 5234 5251 5269 5289 5309 5329 5350 5371 5395 5419 5443 5467 5487 5509 5528 5546 5563 5577 5590 5601 5611 5619 5626
5147 5135 5125 5118 5114 5113 5113 5112 5111 5112 5116 5123 5133 5144 5156 5168 5179 5191 5202 5214 5228 5246 5262 5280 5299 5319 5339 5360 5382 5406 5430 5452 5474 5495 5516 5534 5549 5564 5577 5589 5599 5608 5617
5147 5135 5125 5118 5115 5116 5117 5117 5115 5116 5120 5126 5134 5144 5155 5166 5176 5187 5199 5210 5223 5239 5256 5273 5291 5310 5330 5350 5370 5392 5416 5438 5460 5483 5504 5521 5536 5551 5565 5577 5589 5598 5606
5147 5136 5127 5120 5117 5118 5122 5121 5118 5119 5122 5127 5135 5144 5154 5165 5176 5186 5197 5206 5218 5233 5248 5265 5283 5301 5319 5338 5356 5376 5399 5423 5448 5469 5489 5506 5523 5538 5550 5562 5573 5584 5593
5150 5139 5129 5122 5119 5118 5124 5125 5121 5118 5121 5126 5134 5142 5152 5161 5171 5181 5192 5202 5213 5225 5239 5253 5270 5287 5306 5323 5342 5361 5382 5407 5434 5456 5472 5490 5507 5521 5534 5547 5559 5571 5581
5153 5143 5134 5126 5121 5120 5125 5126 5123 5118 5121 5125 5132 5139 5148 5158 5166 5174 5183 5193 5203 5216 5231 5244 5259 5275 5294 5313 5330 5351 5369 5387 5412 5434 5453 5476 5493 5507 5520 5533 5546 5558 5569
5157 5148 5139 5131 5125 5123 5126 5127 5123 5121 5121 5125 5130 5136 5144 5153 5164 5171 5178 5187 5197 5208 5222 5237 5253 5269 5285 5303 5319 5336 5354 5375 5398 5419 5438 5460 5478 5491 5505 5519 5533 5546 5557
5163 5154 5146 5137 5130 5127 5128 5129 5125 5122 5122 5124 5128 5135 5143 5150 5162 5169 5174 5183 5193 5203 5216 5231 5247 5262 5278 5295 5311 5327 5345 5367 5390 5410 5427 5445 5463 5476 5488 5502 5518 5533 5545
5169 5160 5152 5145 5137 5132 5132 5133 5130 5125 5124 5125 5128 5133 5140 5150 5158 5166 5171 5179 5190 5199 5211 5225 5239 5254 5269 5285 5301 5315 5330 5350 5372 5394 5413 5430 5448 5461 5474 5485 5501 5518 5532